Simultaneous Nadir Overpasses (SNOs) Predictions

Prediction of SNOs between AQUA and METOP-B Satellite Orbit:

Table of predicted SNOs for the next 14.0 days since TLE Epoch: 11/25/2016
Index Date (AQUA) Time (AQUA) Lat,Lon (AQUA) SZA (AQUA ) Date (METOP-B) Time (METOP-B) Lat,Lon (METOP-B) SZA (METOP-B ) Distance(km) Time Diff (sec)
1 11/28/2016 07:28:22 73.65, 62.39 94.96 11/28/2016 07:27:35 73.68, 62.37 95.00 3.49 47
2 11/28/2016 08:17:50 -73.76,-130.21 84.92 11/28/2016 08:18:16 -73.72,-130.20 84.96 3.76 26
3 12/01/2016 03:02:38 73.67, 128.77 95.45 12/01/2016 03:01:58 73.69, 128.81 95.47 2.64 40
4 12/01/2016 03:52:05 -73.73, -63.70 84.50 12/01/2016 03:52:39 -73.74, -63.74 84.48 2.46 34
5 12/03/2016 22:36:52 73.66,-164.76 95.84 12/03/2016 22:36:21 73.66,-164.87 95.85 3.29 31
6 12/03/2016 23:26:20 -73.76, 2.66 84.05 12/03/2016 23:27:01 -73.76, 2.71 84.05 1.39 41
7 12/06/2016 18:11:08 73.71, -98.43 96.25 12/06/2016 18:10:43 73.72, -98.32 96.26 3.65 25
8 12/06/2016 19:00:35 -73.76, 69.11 83.71 12/06/2016 19:01:24 -73.78, 69.15 83.69 2.87 49
9 12/09/2016 12:55:47 -73.25, 161.36 83.95 12/09/2016 12:54:38 -73.16, 159.49 83.99 60.55 69
10 12/09/2016 13:45:22 73.67, -31.90 96.50 12/09/2016 13:45:07 73.68, -32.01 96.51 3.49 15
11 12/09/2016 14:34:50 -73.76, 135.54 83.41 12/09/2016 14:35:48 -73.74, 135.47 83.43 3.18 58




NCC Satellite Simultaneous Nadir Overpasses (SNOs) Prediction Service
